Year,Month,Day,Hour,Minute,Value (Times are PST for windgust in km/hr)
2020,03,06,00,00,8.10
2020,03,06,00,01,6.40
2020,03,06,00,02,9.60
2020,03,06,00,03,8.10
2020,03,06,00,04,6.40
2020,03,06,00,05,8.10
2020,03,06,00,06,9.60
2020,03,06,00,07,8.10
2020,03,06,00,08,6.40
2020,03,06,00,09,9.60
2020,03,06,00,10,8.10
2020,03,06,00,11,12.90
2020,03,06,00,12,6.40
2020,03,06,00,13,6.40
2020,03,06,00,14,8.10
2020,03,06,00,15,14.50
2020,03,06,00,16,9.60
2020,03,06,00,17,9.60
2020,03,06,00,18,11.30
2020,03,06,00,19,11.30
2020,03,06,00,20,9.60
2020,03,06,00,21,12.90
2020,03,06,00,22,8.10
2020,03,06,00,23,11.30
2020,03,06,00,24,6.40
2020,03,06,00,25,16.10
2020,03,06,00,26,11.30
2020,03,06,00,27,14.50
2020,03,06,00,28,8.10
2020,03,06,00,29,16.10
2020,03,06,00,30,8.10
2020,03,06,00,31,16.10
2020,03,06,00,32,6.40
2020,03,06,00,33,9.60
2020,03,06,00,34,12.90
2020,03,06,00,35,11.30
2020,03,06,00,36,9.60
2020,03,06,00,37,11.30
2020,03,06,00,38,4.80
2020,03,06,00,39,9.60
2020,03,06,00,40,11.30
2020,03,06,00,41,9.60
2020,03,06,00,42,9.60
2020,03,06,00,43,6.40
2020,03,06,00,44,6.40
2020,03,06,00,45,9.60
2020,03,06,00,46,4.80
2020,03,06,00,47,4.80
2020,03,06,00,48,1.60
2020,03,06,00,49,1.60
2020,03,06,00,50,6.40
2020,03,06,00,51,4.80
2020,03,06,00,52,4.80
2020,03,06,00,53,8.10
2020,03,06,00,54,9.60
2020,03,06,00,55,6.40
2020,03,06,00,56,11.30
2020,03,06,00,57,9.60
2020,03,06,00,58,9.60
2020,03,06,00,59,6.40
2020,03,06,01,00,8.10
2020,03,06,01,01,4.80
2020,03,06,01,02,4.80
2020,03,06,01,03,1.60
2020,03,06,01,04,6.40
2020,03,06,01,05,4.80
2020,03,06,01,06,3.20
2020,03,06,01,07,8.10
2020,03,06,01,08,3.20
2020,03,06,01,09,3.20
2020,03,06,01,10,6.40
2020,03,06,01,11,3.20
2020,03,06,01,12,4.80
2020,03,06,01,13,1.60
2020,03,06,01,14,1.60
2020,03,06,01,17,3.20
2020,03,06,01,18,8.10
2020,03,06,01,19,3.20
2020,03,06,01,20,1.60
2020,03,06,01,21,3.20
2020,03,06,01,22,1.60
2020,03,06,01,26,4.80
2020,03,06,01,27,4.80
2020,03,06,01,28,3.20
2020,03,06,01,30,1.60
2020,03,06,01,31,1.60
2020,03,06,01,35,1.60
2020,03,06,01,36,1.60
2020,03,06,01,39,1.60
2020,03,06,01,43,3.20
2020,03,06,01,44,3.20
2020,03,06,01,45,3.20
2020,03,06,01,46,1.60
2020,03,06,01,47,3.20
2020,03,06,01,48,3.20
2020,03,06,01,49,4.80
2020,03,06,01,50,4.80
2020,03,06,01,51,6.40
2020,03,06,01,52,4.80
2020,03,06,01,53,4.80
2020,03,06,01,54,3.20
2020,03,06,01,55,6.40
2020,03,06,01,56,1.60
2020,03,06,01,57,6.40
2020,03,06,01,58,3.20
2020,03,06,01,59,4.80
2020,03,06,02,02,1.60
2020,03,06,02,03,3.20
2020,03,06,02,04,1.60
2020,03,06,02,05,1.60
2020,03,06,02,06,3.20
2020,03,06,02,07,1.60
2020,03,06,02,08,1.60
2020,03,06,02,09,3.20
2020,03,06,02,10,3.20
2020,03,06,02,11,3.20
2020,03,06,02,14,1.60
2020,03,06,02,15,1.60
2020,03,06,02,17,1.60
2020,03,06,02,19,1.60
2020,03,06,02,20,3.20
2020,03,06,02,21,3.20
2020,03,06,02,24,1.60
2020,03,06,02,25,1.60
2020,03,06,02,26,1.60
2020,03,06,02,27,3.20
2020,03,06,02,28,3.20
2020,03,06,02,29,3.20
2020,03,06,02,30,3.20
2020,03,06,02,31,6.40
2020,03,06,02,32,3.20
2020,03,06,02,33,1.60
2020,03,06,02,36,1.60
2020,03,06,02,37,3.20
2020,03,06,02,38,3.20
2020,03,06,02,39,1.60
2020,03,06,02,40,1.60
2020,03,06,02,42,1.60
2020,03,06,02,43,3.20
2020,03,06,02,44,1.60
2020,03,06,02,47,4.80
2020,03,06,02,48,4.80
2020,03,06,02,49,3.20
2020,03,06,02,50,1.60
2020,03,06,02,51,1.60
2020,03,06,02,52,1.60
2020,03,06,02,59,1.60
2020,03,06,03,01,3.20
2020,03,06,03,02,3.20
2020,03,06,03,03,4.80
2020,03,06,03,04,3.20
2020,03,06,03,05,1.60
2020,03,06,03,06,1.60
2020,03,06,03,07,3.20
2020,03,06,03,08,3.20
2020,03,06,03,09,3.20
2020,03,06,03,10,4.80
2020,03,06,03,11,3.20
2020,03,06,03,12,1.60
2020,03,06,03,13,1.60
2020,03,06,03,14,1.60
2020,03,06,03,15,1.60
2020,03,06,03,16,1.60
2020,03,06,03,17,3.20
2020,03,06,03,18,1.60
2020,03,06,03,19,1.60
2020,03,06,03,20,1.60
2020,03,06,03,21,3.20
2020,03,06,03,22,1.60
2020,03,06,03,23,3.20
2020,03,06,03,24,3.20
2020,03,06,03,25,1.60
2020,03,06,03,28,1.60
2020,03,06,03,29,3.20
2020,03,06,03,30,4.80
2020,03,06,03,31,3.20
2020,03,06,03,32,1.60
2020,03,06,03,35,1.60
2020,03,06,03,36,1.60
2020,03,06,03,37,1.60
2020,03,06,03,38,1.60
2020,03,06,03,39,6.40
2020,03,06,03,40,4.80
2020,03,06,03,41,1.60
2020,03,06,03,42,3.20
2020,03,06,03,43,4.80
2020,03,06,03,44,3.20
2020,03,06,03,45,3.20
2020,03,06,03,46,4.80
2020,03,06,03,47,4.80
2020,03,06,03,48,3.20
2020,03,06,03,49,1.60
2020,03,06,03,50,1.60
2020,03,06,03,53,1.60
2020,03,06,03,54,1.60
2020,03,06,03,55,1.60
2020,03,06,03,57,1.60
2020,03,06,04,01,1.60
2020,03,06,04,02,3.20
2020,03,06,04,03,3.20
2020,03,06,04,04,1.60
2020,03,06,04,05,1.60
2020,03,06,04,06,1.60
2020,03,06,04,07,1.60
2020,03,06,04,12,1.60
2020,03,06,04,13,1.60
2020,03,06,04,14,3.20
2020,03,06,04,15,3.20
2020,03,06,04,16,1.60
2020,03,06,04,17,3.20
2020,03,06,04,18,1.60
2020,03,06,04,19,1.60
2020,03,06,04,20,3.20
2020,03,06,04,21,3.20
2020,03,06,04,22,1.60
2020,03,06,04,23,1.60
2020,03,06,04,24,1.60
2020,03,06,04,25,4.80
2020,03,06,04,26,6.40
2020,03,06,04,27,6.40
2020,03,06,04,28,4.80
2020,03,06,04,29,6.40
2020,03,06,04,30,4.80
2020,03,06,04,31,3.20
2020,03,06,04,32,1.60
2020,03,06,04,33,4.80
2020,03,06,04,34,4.80
2020,03,06,04,35,1.60
2020,03,06,04,36,1.60
2020,03,06,04,37,1.60
2020,03,06,04,38,3.20
2020,03,06,04,39,3.20
2020,03,06,04,40,1.60
2020,03,06,04,42,1.60
2020,03,06,04,44,3.20
2020,03,06,04,45,3.20
2020,03,06,04,46,1.60
2020,03,06,04,47,1.60
2020,03,06,04,48,1.60
2020,03,06,04,49,1.60
2020,03,06,04,51,3.20
2020,03,06,04,52,4.80
2020,03,06,04,53,4.80
2020,03,06,04,54,4.80
2020,03,06,04,55,4.80
2020,03,06,04,56,3.20
2020,03,06,04,57,3.20
2020,03,06,04,58,3.20
2020,03,06,04,59,1.60
2020,03,06,05,00,1.60
2020,03,06,05,01,1.60
2020,03,06,05,02,3.20
2020,03,06,05,03,4.80
2020,03,06,05,04,3.20
2020,03,06,05,05,3.20
2020,03,06,05,06,4.80
2020,03,06,05,07,4.80
2020,03,06,05,08,4.80
2020,03,06,05,09,6.40
2020,03,06,05,10,6.40
2020,03,06,05,11,4.80
2020,03,06,05,12,4.80
2020,03,06,05,13,6.40
2020,03,06,05,14,4.80
2020,03,06,05,15,4.80
2020,03,06,05,16,4.80
2020,03,06,05,17,4.80
2020,03,06,05,18,6.40
2020,03,06,05,19,6.40
2020,03,06,05,20,4.80
2020,03,06,05,21,4.80
2020,03,06,05,22,3.20
2020,03,06,05,23,1.60
2020,03,06,05,24,3.20
2020,03,06,05,25,4.80
2020,03,06,05,26,4.80
2020,03,06,05,27,6.40
2020,03,06,05,28,6.40
2020,03,06,05,29,8.10
2020,03,06,05,30,6.40
2020,03,06,05,31,6.40
2020,03,06,05,32,4.80
2020,03,06,05,33,4.80
2020,03,06,05,34,4.80
2020,03,06,05,35,6.40
2020,03,06,05,36,6.40
2020,03,06,05,37,4.80
2020,03,06,05,38,6.40
2020,03,06,05,39,6.40
2020,03,06,05,40,6.40
2020,03,06,05,41,6.40
2020,03,06,05,42,6.40
2020,03,06,05,43,8.10
2020,03,06,05,44,6.40
2020,03,06,05,45,6.40
2020,03,06,05,46,6.40
2020,03,06,05,47,4.80
2020,03,06,05,48,4.80
2020,03,06,05,49,4.80
2020,03,06,05,50,6.40
2020,03,06,05,51,6.40
2020,03,06,05,52,4.80
2020,03,06,05,53,6.40
2020,03,06,05,54,4.80
2020,03,06,05,55,4.80
2020,03,06,05,56,4.80
2020,03,06,05,57,3.20
2020,03,06,05,58,1.60
2020,03,06,05,59,1.60
2020,03,06,06,00,1.60
2020,03,06,06,01,1.60
2020,03,06,06,02,1.60
2020,03,06,06,03,1.60
2020,03,06,06,04,1.60
2020,03,06,06,05,1.60
2020,03,06,06,06,1.60
2020,03,06,06,07,1.60
2020,03,06,08,06,3.20
2020,03,06,08,07,1.60
2020,03,06,08,10,1.60
2020,03,06,08,41,3.20
2020,03,06,08,42,1.60
2020,03,06,08,43,1.60
2020,03,06,08,44,1.60
2020,03,06,08,48,3.20
2020,03,06,08,49,1.60
2020,03,06,08,50,1.60
2020,03,06,08,51,1.60
2020,03,06,08,53,1.60
2020,03,06,08,54,1.60
2020,03,06,08,57,1.60
2020,03,06,08,58,1.60
2020,03,06,08,59,3.20
2020,03,06,09,00,4.80
2020,03,06,09,01,3.20
2020,03,06,09,02,1.60
2020,03,06,09,03,1.60
2020,03,06,09,04,3.20
2020,03,06,09,05,1.60
2020,03,06,09,06,1.60
2020,03,06,09,07,3.20
2020,03,06,09,08,3.20
2020,03,06,09,09,3.20
2020,03,06,09,10,1.60
2020,03,06,09,11,3.20
2020,03,06,09,12,4.80
2020,03,06,09,13,1.60
2020,03,06,09,14,3.20
2020,03,06,09,15,3.20
2020,03,06,09,16,1.60
2020,03,06,09,17,4.80
2020,03,06,09,18,4.80
2020,03,06,09,19,4.80
2020,03,06,09,20,3.20
2020,03,06,09,21,4.80
2020,03,06,09,22,3.20
2020,03,06,09,23,3.20
2020,03,06,09,24,3.20
2020,03,06,09,25,4.80
2020,03,06,09,26,3.20
2020,03,06,09,27,1.60
2020,03,06,09,28,3.20
2020,03,06,09,29,3.20
2020,03,06,09,30,4.80
2020,03,06,09,31,3.20
2020,03,06,09,32,4.80
2020,03,06,09,33,1.60
2020,03,06,09,34,3.20
2020,03,06,09,35,3.20
2020,03,06,09,36,4.80
2020,03,06,09,37,3.20
2020,03,06,09,38,4.80
2020,03,06,09,39,3.20
2020,03,06,09,40,1.60
2020,03,06,09,41,3.20
2020,03,06,09,42,4.80
2020,03,06,09,43,4.80
2020,03,06,09,44,3.20
2020,03,06,09,45,4.80
2020,03,06,09,46,4.80
2020,03,06,09,47,4.80
2020,03,06,09,48,4.80
2020,03,06,09,49,4.80
2020,03,06,09,50,3.20
2020,03,06,09,51,6.40
2020,03,06,09,52,4.80
2020,03,06,09,53,3.20
2020,03,06,09,54,6.40
2020,03,06,09,55,3.20
2020,03,06,09,56,1.60
2020,03,06,09,57,3.20
2020,03,06,09,58,4.80
2020,03,06,09,59,4.80
2020,03,06,10,00,6.40
2020,03,06,10,01,6.40
2020,03,06,10,02,6.40
2020,03,06,10,03,6.40
2020,03,06,10,04,4.80
2020,03,06,10,05,6.40
2020,03,06,10,06,4.80
2020,03,06,10,07,8.10
2020,03,06,10,08,8.10
2020,03,06,10,09,8.10
2020,03,06,10,10,6.40
2020,03,06,10,11,8.10
2020,03,06,10,12,8.10
2020,03,06,10,13,6.40
2020,03,06,10,14,9.60
2020,03,06,10,15,8.10
2020,03,06,10,16,4.80
2020,03,06,10,17,3.20
2020,03,06,10,18,4.80
2020,03,06,10,19,4.80
2020,03,06,10,20,4.80
2020,03,06,10,21,4.80
2020,03,06,10,22,8.10
2020,03,06,10,23,8.10
2020,03,06,10,24,11.30
2020,03,06,10,25,8.10
2020,03,06,10,26,6.40
2020,03,06,10,27,8.10
2020,03,06,10,28,6.40
2020,03,06,10,29,8.10
2020,03,06,10,30,6.40
2020,03,06,10,31,4.80
2020,03,06,10,32,4.80
2020,03,06,10,33,6.40
2020,03,06,10,34,6.40
2020,03,06,10,35,6.40
2020,03,06,10,36,6.40
2020,03,06,10,37,6.40
2020,03,06,10,38,6.40
2020,03,06,10,39,6.40
2020,03,06,10,40,6.40
2020,03,06,10,41,6.40
2020,03,06,10,42,6.40
2020,03,06,10,43,6.40
2020,03,06,10,44,4.80
2020,03,06,10,45,4.80
2020,03,06,10,46,3.20
2020,03,06,10,47,3.20
2020,03,06,10,48,6.40
2020,03,06,10,49,4.80
2020,03,06,10,50,6.40
2020,03,06,10,51,4.80
2020,03,06,10,52,8.10
2020,03,06,10,53,8.10
2020,03,06,10,54,4.80
2020,03,06,10,55,6.40
2020,03,06,10,56,4.80
2020,03,06,10,57,3.20
2020,03,06,10,58,4.80
2020,03,06,10,59,6.40
2020,03,06,11,00,4.80
2020,03,06,11,01,6.40
2020,03,06,11,02,1.60
2020,03,06,11,03,4.80
2020,03,06,11,04,6.40
2020,03,06,11,05,3.20
2020,03,06,11,06,3.20
2020,03,06,11,07,8.10
2020,03,06,11,08,6.40
2020,03,06,11,09,8.10
2020,03,06,11,10,4.80
2020,03,06,11,11,9.60
2020,03,06,11,12,4.80
2020,03,06,11,13,4.80
2020,03,06,11,14,4.80
2020,03,06,11,15,4.80
2020,03,06,11,16,8.10
2020,03,06,11,17,4.80
2020,03,06,11,18,3.20
2020,03,06,11,19,6.40
2020,03,06,11,20,12.90
2020,03,06,11,21,9.60
2020,03,06,11,22,4.80
2020,03,06,11,23,4.80
2020,03,06,11,24,9.60
2020,03,06,11,25,9.60
2020,03,06,11,26,3.20
2020,03,06,11,27,8.10
2020,03,06,11,28,8.10
2020,03,06,11,29,8.10
2020,03,06,11,30,8.10
2020,03,06,11,31,6.40
2020,03,06,11,32,6.40
2020,03,06,11,33,8.10
2020,03,06,11,34,3.20
2020,03,06,11,35,4.80
2020,03,06,11,36,4.80
2020,03,06,11,37,6.40
2020,03,06,11,38,4.80
2020,03,06,11,39,4.80
2020,03,06,11,40,4.80
2020,03,06,11,41,6.40
2020,03,06,11,42,4.80
2020,03,06,11,43,3.20
2020,03,06,11,44,6.40
2020,03,06,11,45,4.80
2020,03,06,11,46,4.80
2020,03,06,11,47,4.80
2020,03,06,11,48,4.80
2020,03,06,11,49,4.80
2020,03,06,11,50,9.60
2020,03,06,11,51,4.80
2020,03,06,11,52,6.40
2020,03,06,11,53,4.80
2020,03,06,11,54,4.80
2020,03,06,11,55,9.60
2020,03,06,11,56,8.10
2020,03,06,11,57,6.40
2020,03,06,11,58,8.10
2020,03,06,11,59,8.10
2020,03,06,12,00,4.80
2020,03,06,12,01,8.10
2020,03,06,12,02,8.10
2020,03,06,12,03,9.60
2020,03,06,12,04,6.40
2020,03,06,12,05,4.80
2020,03,06,12,06,4.80
2020,03,06,12,07,6.40
2020,03,06,12,08,6.40
2020,03,06,12,09,9.60
2020,03,06,12,10,8.10
2020,03,06,12,11,6.40
2020,03,06,12,12,4.80
2020,03,06,12,13,3.20
2020,03,06,12,14,8.10
2020,03,06,12,15,6.40
2020,03,06,12,16,6.40
2020,03,06,12,17,11.30
2020,03,06,12,18,8.10
2020,03,06,12,19,11.30
2020,03,06,12,20,6.40
2020,03,06,12,21,4.80
2020,03,06,12,22,6.40
2020,03,06,12,23,4.80
2020,03,06,12,24,6.40
2020,03,06,12,25,6.40
2020,03,06,12,26,8.10
2020,03,06,12,27,4.80
2020,03,06,12,28,6.40
2020,03,06,12,29,4.80
2020,03,06,12,30,8.10
2020,03,06,12,31,6.40
2020,03,06,12,32,4.80
2020,03,06,12,33,3.20
2020,03,06,12,34,6.40
2020,03,06,12,35,4.80
2020,03,06,12,36,6.40
2020,03,06,12,37,4.80
2020,03,06,12,38,6.40
2020,03,06,12,39,6.40
2020,03,06,12,40,4.80
2020,03,06,12,41,4.80
2020,03,06,12,42,8.10
2020,03,06,12,43,4.80
2020,03,06,12,44,8.10
2020,03,06,12,45,3.20
2020,03,06,12,46,4.80
2020,03,06,12,47,6.40
2020,03,06,12,48,3.20
2020,03,06,12,49,6.40
2020,03,06,12,50,8.10
2020,03,06,12,51,8.10
2020,03,06,12,52,4.80
2020,03,06,12,53,3.20
2020,03,06,12,54,6.40
2020,03,06,12,55,6.40
2020,03,06,12,56,6.40
2020,03,06,12,57,1.60
2020,03,06,12,58,6.40
2020,03,06,12,59,6.40
2020,03,06,13,00,6.40
2020,03,06,13,01,11.30
2020,03,06,13,02,6.40
2020,03,06,13,03,4.80
2020,03,06,13,04,6.40
2020,03,06,13,05,4.80
2020,03,06,13,06,8.10
2020,03,06,13,07,6.40
2020,03,06,13,08,4.80
2020,03,06,13,09,9.60
2020,03,06,13,10,8.10
2020,03,06,13,11,6.40
2020,03,06,13,12,9.60
2020,03,06,13,13,12.90
2020,03,06,13,14,11.30
2020,03,06,13,15,14.50
2020,03,06,13,16,14.50
2020,03,06,13,17,8.10
2020,03,06,13,18,11.30
2020,03,06,13,19,9.60
2020,03,06,13,20,4.80
2020,03,06,13,21,3.20
2020,03,06,13,22,9.60
2020,03,06,13,23,11.30
2020,03,06,13,24,8.10
2020,03,06,13,25,4.80
2020,03,06,13,26,8.10
2020,03,06,13,27,8.10
2020,03,06,13,28,6.40
2020,03,06,13,29,8.10
2020,03,06,13,30,6.40
2020,03,06,13,31,8.10
2020,03,06,13,32,4.80
2020,03,06,13,33,6.40
2020,03,06,13,34,6.40
2020,03,06,13,35,8.10
2020,03,06,13,36,11.30
2020,03,06,13,37,6.40
2020,03,06,13,38,9.60
2020,03,06,13,39,8.10
2020,03,06,13,40,6.40
2020,03,06,13,41,9.60
2020,03,06,13,42,6.40
2020,03,06,13,43,9.60
2020,03,06,13,44,9.60
2020,03,06,13,45,6.40
2020,03,06,13,46,9.60
2020,03,06,13,47,11.30
2020,03,06,13,48,4.80
2020,03,06,13,49,8.10
2020,03,06,13,50,8.10
2020,03,06,13,51,8.10
2020,03,06,13,52,4.80
2020,03,06,13,53,4.80
2020,03,06,13,54,6.40
2020,03,06,13,55,6.40
2020,03,06,13,56,4.80
2020,03,06,13,57,8.10
2020,03,06,13,58,6.40
2020,03,06,13,59,11.30
2020,03,06,14,00,6.40
2020,03,06,14,01,6.40
2020,03,06,14,02,4.80
2020,03,06,14,03,9.60
2020,03,06,14,04,4.80
2020,03,06,14,05,6.40
2020,03,06,14,06,6.40
2020,03,06,14,07,9.60
2020,03,06,14,08,8.10
2020,03,06,14,09,8.10
2020,03,06,14,10,6.40
2020,03,06,14,11,8.10
2020,03,06,14,12,8.10
2020,03,06,14,13,11.30
2020,03,06,14,14,4.80
2020,03,06,14,15,4.80
2020,03,06,14,16,8.10
2020,03,06,14,17,4.80
2020,03,06,14,18,4.80
2020,03,06,14,19,8.10
2020,03,06,14,20,6.40
2020,03,06,14,21,8.10
2020,03,06,14,22,6.40
2020,03,06,14,23,8.10
2020,03,06,14,24,4.80
2020,03,06,14,25,6.40
2020,03,06,14,26,6.40
2020,03,06,14,27,6.40
2020,03,06,14,28,8.10
2020,03,06,14,29,9.60
2020,03,06,14,30,8.10
2020,03,06,14,31,8.10
2020,03,06,14,32,6.40
2020,03,06,14,33,6.40
2020,03,06,14,34,4.80
2020,03,06,14,35,11.30
2020,03,06,14,36,8.10
2020,03,06,14,37,8.10
2020,03,06,14,38,6.40
2020,03,06,14,39,8.10
2020,03,06,14,40,6.40
2020,03,06,14,41,9.60
2020,03,06,14,42,11.30
2020,03,06,14,43,8.10
2020,03,06,14,44,6.40
2020,03,06,14,45,4.80
2020,03,06,14,46,11.30
2020,03,06,14,47,8.10
2020,03,06,14,48,6.40
2020,03,06,14,49,6.40
2020,03,06,14,50,6.40
2020,03,06,14,51,4.80
2020,03,06,14,52,6.40
2020,03,06,14,53,8.10
2020,03,06,14,54,8.10
2020,03,06,14,55,6.40
2020,03,06,14,56,4.80
2020,03,06,14,57,6.40
2020,03,06,14,58,6.40
2020,03,06,14,59,6.40
2020,03,06,15,00,8.10
2020,03,06,15,01,8.10
2020,03,06,15,02,8.10
2020,03,06,15,03,3.20
2020,03,06,15,04,9.60
2020,03,06,15,05,6.40
2020,03,06,15,06,6.40
2020,03,06,15,07,8.10
2020,03,06,15,08,8.10
2020,03,06,15,09,3.20
2020,03,06,15,10,3.20
2020,03,06,15,11,8.10
2020,03,06,15,12,4.80
2020,03,06,15,13,4.80
2020,03,06,15,14,4.80
2020,03,06,15,15,4.80
2020,03,06,15,16,6.40
2020,03,06,15,17,4.80
2020,03,06,15,18,4.80
2020,03,06,15,19,4.80
2020,03,06,15,20,3.20
2020,03,06,15,21,6.40
2020,03,06,15,22,3.20
2020,03,06,15,23,4.80
2020,03,06,15,24,6.40
2020,03,06,15,25,6.40
2020,03,06,15,26,4.80
2020,03,06,15,27,8.10
2020,03,06,15,28,1.60
2020,03,06,15,29,3.20
2020,03,06,15,30,3.20
2020,03,06,15,31,6.40
2020,03,06,15,32,4.80
2020,03,06,15,33,4.80
2020,03,06,15,34,8.10
2020,03,06,15,35,9.60
2020,03,06,15,36,9.60
2020,03,06,15,37,9.60
2020,03,06,15,38,14.50
2020,03,06,15,39,9.60
2020,03,06,15,40,9.60
2020,03,06,15,41,8.10
2020,03,06,15,42,9.60
2020,03,06,15,43,6.40
2020,03,06,15,44,6.40
2020,03,06,15,45,6.40
2020,03,06,15,46,9.60
2020,03,06,15,47,9.60
2020,03,06,15,48,8.10
2020,03,06,15,49,8.10
2020,03,06,15,50,8.10
2020,03,06,15,51,8.10
2020,03,06,15,52,8.10
2020,03,06,15,53,8.10
2020,03,06,15,54,9.60
2020,03,06,15,55,9.60
2020,03,06,15,56,9.60
2020,03,06,15,57,9.60
2020,03,06,15,58,6.40
2020,03,06,15,59,9.60
2020,03,06,16,00,8.10
2020,03,06,16,01,9.60
2020,03,06,16,02,8.10
2020,03,06,16,03,11.30
2020,03,06,16,04,8.10
2020,03,06,16,05,9.60
2020,03,06,16,06,4.80
2020,03,06,16,07,6.40
2020,03,06,16,08,8.10
2020,03,06,16,09,8.10
2020,03,06,16,10,8.10
2020,03,06,16,11,9.60
2020,03,06,16,12,6.40
2020,03,06,16,13,6.40
2020,03,06,16,14,6.40
2020,03,06,16,15,8.10
2020,03,06,16,16,8.10
2020,03,06,16,17,6.40
2020,03,06,16,18,8.10
2020,03,06,16,19,11.30
2020,03,06,16,20,9.60
2020,03,06,16,21,8.10
2020,03,06,16,22,4.80
2020,03,06,16,23,4.80
2020,03,06,16,24,8.10
2020,03,06,16,25,6.40
2020,03,06,16,26,6.40
2020,03,06,16,27,6.40
2020,03,06,16,28,11.30
2020,03,06,16,29,14.50
2020,03,06,16,30,11.30
2020,03,06,16,31,8.10
2020,03,06,16,32,8.10
2020,03,06,16,33,4.80
2020,03,06,16,34,6.40
2020,03,06,16,35,1.60
2020,03,06,16,36,4.80
2020,03,06,16,37,6.40
2020,03,06,16,38,6.40
2020,03,06,16,39,9.60
2020,03,06,16,40,11.30
2020,03,06,16,41,11.30
2020,03,06,16,42,9.60
2020,03,06,16,43,9.60
2020,03,06,16,44,6.40
2020,03,06,16,45,4.80
2020,03,06,16,46,4.80
2020,03,06,16,47,8.10
2020,03,06,16,48,6.40
2020,03,06,16,49,6.40
2020,03,06,16,50,8.10
2020,03,06,16,51,8.10
2020,03,06,16,52,3.20
2020,03,06,16,53,4.80
2020,03,06,16,54,6.40
2020,03,06,16,55,4.80
2020,03,06,16,56,4.80
2020,03,06,16,57,6.40
2020,03,06,16,58,4.80
2020,03,06,16,59,8.10
2020,03,06,17,00,6.40
2020,03,06,17,01,4.80
2020,03,06,17,02,3.20
2020,03,06,17,03,4.80
2020,03,06,17,04,8.10
2020,03,06,17,05,6.40
2020,03,06,17,06,3.20
2020,03,06,17,07,3.20
2020,03,06,17,08,4.80
2020,03,06,17,09,4.80
2020,03,06,17,10,4.80
2020,03,06,17,11,6.40
2020,03,06,17,12,8.10
2020,03,06,17,13,4.80
2020,03,06,17,14,4.80
2020,03,06,17,15,3.20
2020,03,06,17,16,1.60
2020,03,06,17,17,3.20
2020,03,06,17,18,1.60
2020,03,06,17,19,3.20
2020,03,06,17,20,6.40
2020,03,06,17,21,3.20
2020,03,06,17,22,1.60
2020,03,06,17,23,3.20
2020,03,06,17,24,6.40
2020,03,06,17,25,1.60
2020,03,06,17,26,4.80
2020,03,06,17,27,3.20
2020,03,06,17,28,3.20
2020,03,06,17,29,3.20
2020,03,06,17,30,4.80
2020,03,06,17,31,4.80
2020,03,06,17,32,4.80
2020,03,06,17,33,4.80
2020,03,06,17,34,3.20
2020,03,06,17,35,3.20
2020,03,06,17,36,3.20
2020,03,06,17,37,1.60
2020,03,06,17,38,3.20
2020,03,06,17,39,1.60
2020,03,06,17,40,3.20
2020,03,06,17,41,4.80
2020,03,06,17,42,1.60
2020,03,06,17,43,3.20
2020,03,06,17,44,3.20
2020,03,06,17,45,4.80
2020,03,06,17,46,4.80
2020,03,06,17,47,4.80
2020,03,06,17,48,3.20
2020,03,06,17,49,3.20
2020,03,06,17,50,6.40
2020,03,06,17,51,1.60
2020,03,06,17,52,3.20
2020,03,06,17,53,4.80
2020,03,06,17,54,4.80
2020,03,06,17,55,3.20
2020,03,06,17,56,1.60
2020,03,06,17,57,4.80
2020,03,06,17,58,4.80
2020,03,06,17,59,1.60
2020,03,06,18,00,1.60
2020,03,06,18,01,3.20
2020,03,06,18,02,3.20
2020,03,06,18,03,1.60
2020,03,06,18,15,1.60
2020,03,06,18,18,1.60
2020,03,06,18,27,1.60
2020,03,06,18,28,1.60
2020,03,06,18,29,1.60
2020,03,06,18,30,1.60
2020,03,06,18,31,1.60
2020,03,06,18,32,1.60
2020,03,06,18,33,1.60
2020,03,06,18,34,1.60
2020,03,06,18,35,1.60
2020,03,06,18,36,1.60
2020,03,06,18,37,1.60
2020,03,06,18,41,1.60
2020,03,06,18,47,1.60
2020,03,06,18,48,1.60
2020,03,06,18,49,1.60
2020,03,06,18,50,1.60
2020,03,06,18,51,1.60
2020,03,06,18,52,1.60
2020,03,06,18,53,3.20
2020,03,06,18,54,1.60
2020,03,06,18,55,1.60
2020,03,06,18,56,1.60
2020,03,06,18,57,1.60
2020,03,06,18,58,1.60
2020,03,06,18,59,3.20
2020,03,06,19,00,1.60
2020,03,06,19,01,1.60
2020,03,06,19,02,1.60
2020,03,06,19,03,1.60
2020,03,06,19,07,1.60
2020,03,06,19,11,1.60
2020,03,06,19,12,1.60
2020,03,06,19,13,1.60
2020,03,06,19,17,1.60
2020,03,06,19,18,1.60
2020,03,06,19,21,1.60
2020,03,06,19,22,1.60
2020,03,06,19,26,1.60
2020,03,06,19,31,1.60
2020,03,06,19,33,1.60
2020,03,06,19,34,1.60
2020,03,06,19,35,1.60
2020,03,06,19,36,1.60
2020,03,06,19,37,3.20
2020,03,06,19,38,1.60
2020,03,06,19,39,1.60
2020,03,06,19,40,1.60
2020,03,06,19,41,1.60
2020,03,06,19,42,1.60
2020,03,06,19,43,1.60
2020,03,06,19,44,1.60
2020,03,06,19,45,1.60
2020,03,06,19,46,1.60
2020,03,06,19,47,1.60
2020,03,06,19,48,1.60
2020,03,06,19,49,1.60
2020,03,06,19,50,3.20
2020,03,06,19,51,3.20
2020,03,06,19,52,3.20
2020,03,06,19,53,1.60
2020,03,06,19,54,1.60
2020,03,06,19,55,1.60
2020,03,06,19,56,1.60
2020,03,06,19,57,3.20
2020,03,06,19,58,3.20
2020,03,06,19,59,1.60
2020,03,06,20,00,3.20
2020,03,06,20,01,3.20
2020,03,06,20,02,3.20
2020,03,06,20,03,3.20
2020,03,06,20,04,3.20
2020,03,06,20,05,3.20
2020,03,06,20,06,1.60
2020,03,06,20,07,3.20
2020,03,06,20,08,1.60
2020,03,06,20,09,1.60
2020,03,06,20,10,3.20
2020,03,06,20,11,3.20
2020,03,06,20,12,1.60
2020,03,06,20,13,1.60
2020,03,06,20,14,1.60
2020,03,06,20,15,3.20
2020,03,06,20,16,1.60
2020,03,06,20,17,1.60
2020,03,06,20,19,1.60
2020,03,06,20,22,1.60
2020,03,06,20,23,1.60
2020,03,06,20,25,1.60
2020,03,06,20,26,3.20
2020,03,06,20,29,1.60
2020,03,06,20,30,3.20
2020,03,06,20,41,1.60
2020,03,06,20,42,1.60
2020,03,06,20,45,1.60
2020,03,06,20,46,1.60
2020,03,06,20,47,1.60
2020,03,06,20,59,1.60
2020,03,06,21,00,1.60
2020,03,06,21,01,1.60
2020,03,06,21,02,1.60
2020,03,06,21,03,1.60
2020,03,06,21,05,1.60
2020,03,06,21,06,3.20
2020,03,06,21,07,3.20
2020,03,06,21,08,3.20
2020,03,06,21,09,3.20
2020,03,06,21,10,4.80
2020,03,06,21,11,3.20
2020,03,06,21,12,3.20
2020,03,06,21,13,3.20
2020,03,06,21,14,4.80
2020,03,06,21,15,4.80
2020,03,06,21,16,3.20
2020,03,06,21,17,3.20
2020,03,06,21,18,4.80
2020,03,06,21,19,3.20
2020,03,06,21,20,1.60
2020,03,06,21,21,3.20
2020,03,06,21,22,3.20
2020,03,06,21,23,1.60
2020,03,06,21,24,1.60
2020,03,06,21,25,3.20
2020,03,06,21,26,1.60
2020,03,06,21,27,1.60
2020,03,06,21,28,1.60
2020,03,06,21,29,1.60
2020,03,06,21,31,1.60
2020,03,06,21,33,1.60
2020,03,06,21,34,1.60
2020,03,06,21,35,3.20
2020,03,06,21,36,1.60
2020,03,06,21,37,1.60
2020,03,06,21,38,3.20
2020,03,06,21,39,1.60
2020,03,06,21,40,1.60
2020,03,06,21,41,1.60
2020,03,06,21,42,3.20
2020,03,06,21,43,1.60
2020,03,06,21,44,3.20
2020,03,06,21,45,3.20
2020,03,06,21,46,3.20
2020,03,06,21,47,1.60
2020,03,06,21,48,1.60
2020,03,06,22,01,1.60
2020,03,06,22,03,1.60
2020,03,06,22,09,1.60
2020,03,06,22,13,1.60
2020,03,06,22,14,1.60
2020,03,06,22,16,1.60
2020,03,06,22,17,1.60
2020,03,06,22,18,1.60
2020,03,06,22,19,1.60
2020,03,06,22,20,3.20
2020,03,06,22,21,1.60
2020,03,06,22,22,1.60
2020,03,06,22,33,3.20
2020,03,06,22,34,1.60
2020,03,06,22,35,1.60
2020,03,06,22,36,3.20
2020,03,06,22,38,1.60
2020,03,06,22,39,1.60
2020,03,06,22,40,1.60
2020,03,06,22,41,1.60
2020,03,06,22,45,1.60
2020,03,06,22,46,1.60
2020,03,06,22,47,1.60
2020,03,06,22,48,3.20
2020,03,06,22,49,1.60
2020,03,06,22,50,3.20
2020,03,06,22,51,1.60
2020,03,06,22,52,1.60
2020,03,06,22,53,1.60
2020,03,06,22,54,1.60
2020,03,06,22,55,1.60
2020,03,06,22,56,3.20
2020,03,06,22,57,1.60
2020,03,06,22,58,1.60
2020,03,06,22,59,1.60
2020,03,06,23,00,1.60
2020,03,06,23,01,1.60
2020,03,06,23,03,1.60
2020,03,06,23,04,1.60
2020,03,06,23,05,1.60
2020,03,06,23,06,3.20
2020,03,06,23,07,1.60
2020,03,06,23,09,1.60
2020,03,06,23,10,1.60
2020,03,06,23,11,3.20
2020,03,06,23,13,1.60
2020,03,06,23,14,1.60
2020,03,06,23,15,3.20
2020,03,06,23,16,1.60
2020,03,06,23,17,3.20
2020,03,06,23,18,4.80
2020,03,06,23,19,3.20
2020,03,06,23,20,1.60
2020,03,06,23,22,1.60
2020,03,06,23,23,1.60
2020,03,06,23,24,3.20
2020,03,06,23,25,3.20
2020,03,06,23,26,3.20
2020,03,06,23,27,4.80
2020,03,06,23,28,4.80
2020,03,06,23,29,3.20
2020,03,06,23,30,3.20
2020,03,06,23,31,6.40